Voltar ao catálogo

KUIPER-00597

AtivoComunicaçõesLEO
NORAD 69282·PAYLOAD·🇺🇸 United States

Lançado May 29, 2026 de Vandenberg Space Force Base

Loading…

Próximas Passagens (próximas 24 horas)

TLE

AtualizadoSource: CelesTrak SupGP

Época: Sep 14, 2026, 17:52 UTC

1 69282C 26118R   26257.74489583  .00008285  00000+0  10854-2 0  2574
2 69282  51.8985 349.6464 0001903  39.1460 113.9967 14.79887796    10

Acompanhe KUIPER-00597 em tempo real com AllMySat

Download on the App Store